This demonstration page uses our WeatherBlox Daily Observations layout. Learn more.

Left ArrowRight Arrow

39.08367, -84.50855

Hourly Observations for August 26, 2020

Temp ( °F °C ) Dew Point ( °F °C ) Humidity (%) Winds ( mph kmh ) Pressure ( in mb ) Visibility ( mi km ) Precip ( " mm )
12:53 am 00:53 Mostly Cloudy with Mist and Fog 72 22.2 70 21.1 94 94 E 3 6 30.08 1019 6 10 N/A
1:53 am 01:53 Clear with Mist and Fog 72 22.2 71 21.7 97 97 N N/A 30.06 1018 3 5 N/A
2:06 am 02:06 Clear with Mist and Fog 71 21.7 70 21.1 96 96 N N/A 30.07 1018 2 3 N/A
2:32 am 02:32 Mostly Cloudy with Mist and Fog 71 21.7 70 21.1 96 96 N N/A 30.07 1018 1 1 N/A
2:49 am 02:49 Mostly Clear with Mist and Fog 70 21 70 21 100 100 N N/A 30.06 1018 1 2 N/A
2:53 am 02:53 Mostly Clear with Mist and Fog 70 21.1 69 20.6 97 97 N N/A 30.05 1018 4 6 N/A
3:23 am 03:23 Mostly Clear with Mist and Fog 70 21.1 69 20.6 97 97 N N/A 30.05 1017 1 2 N/A
3:29 am 03:29 Mostly Clear with Mist and Fog 70 21.1 69 20.6 97 97 N N/A 30.05 1017 3 5 N/A
3:53 am 03:53 Mostly Cloudy with Mist and Fog 70 21.1 70 21.1 100 100 N N/A 30.05 1018 4 6 N/A
4:53 am 04:53 Mostly Clear with Mist and Fog 71 21.7 70 21.1 96 96 N N/A 30.05 1018 4 6 N/A
5:22 am 05:22 Partly Cloudy with Mist and Fog 70 21.1 69 20.6 97 97 N N/A 30.06 1018 2 3 N/A
5:32 am 05:32 Partly Cloudy with Mist and Fog 70 21.1 69 20.6 97 97 N N/A 30.06 1018 1 1 N/A
5:45 am 05:45 Mostly Clear with Mist and Fog 70 21.1 69 20.6 97 97 N N/A 30.06 1018 3 4 N/A
5:48 am 05:48 Partly Cloudy with Mist and Fog 70 21 70 21 100 100 N N/A 30.06 1018 2 3 N/A
5:53 am 05:53 Partly Cloudy with Mist and Fog 70 21.1 69 20.6 97 97 N N/A 30.05 1018 1 1 N/A
5:59 am 05:59 Mostly Cloudy with Fog 69 20.6 69 20.6 100 100 N N/A 30.06 1018 0 0 N/A
6:12 am 06:12 Mostly Cloudy with Mist and Fog 70 21.1 69 20.6 97 97 N N/A 30.06 1018 1 2 N/A
6:25 am 06:25 Mostly Cloudy with Fog 69 20.6 69 20.6 100 100 N N/A 30.06 1018 0 0 N/A
6:42 am 06:42 Mostly Cloudy with Mist and Fog 69 20.6 68 20 96 96 N N/A 30.07 1018 1 2 N/A
6:46 am 06:46 Cloudy with Mist and Fog 69 20.6 68 20 96 96 N N/A 30.07 1018 3 5 N/A
6:50 am 06:50 Cloudy with Patchy Fog 70 21 68 20 94 94 N N/A 30.07 1018 2 2 N/A
6:53 am 06:53 Cloudy with Patchy Fog 70 21.1 69 20.6 97 97 N N/A 30.07 1018 2 3 N/A
7:21 am 07:21 Cloudy with Patchy Fog 69 20.6 68 20 96 96 N N/A 30.07 1018 1 2 N/A
7:39 am 07:39 Cloudy with Fog 70 21.1 69 20.6 97 97 N N/A 30.08 1019 N/A N/A
7:53 am 07:53 Cloudy with Fog 70 21.1 70 21.1 100 100 N N/A 30.08 1019 1 1 N/A
8:06 am 08:06 Mostly Cloudy with Mist and Fog 71 21.7 70 21.1 96 96 N N/A 30.08 1018 2 2 N/A
8:22 am 08:22 Mostly Cloudy with Mist and Fog 72 22.2 71 21.7 97 97 N N/A 30.07 1018 2 3 N/A
8:44 am 08:44 Partly Cloudy with Mist and Fog 73 22.8 72 22.2 96 96 N N/A 30.06 1018 4 6 N/A
8:53 am 08:53 Partly Cloudy with Mist and Fog 74 23.3 72 22.2 94 94 SW 3 6 30.07 1018 5 8 N/A
9:53 am 09:53 Sunny 78 25.6 73 22.8 85 85 N N/A 30.07 1018 7 11 N/A
10:53 am 10:53 Sunny 83 28.3 75 23.9 77 77 N N/A 30.08 1019 9 14 N/A
11:53 am 11:53 Mostly Sunny 86 30 73 22.8 65 65 W 7 11 30.08 1019 10 16 N/A
12:53 pm 12:53 Mostly Cloudy 86 30 72 22.2 63 63 W 8 13 30.07 1018 10 16 N/A
1:53 pm 13:53 Mostly Cloudy 88 31.1 71 21.7 57 57 WSW 9 15 30.05 1018 10 16 N/A
2:53 pm 14:53 Partly Cloudy 89 31.7 70 21.1 53 53 WSW 10 17 30.04 1017 10 16 N/A
3:53 pm 15:53 Partly Cloudy 89 31.7 70 21.1 53 53 W 8 13 30.02 1017 10 16 N/A
4:53 pm 16:53 Mostly Sunny 89 31.7 70 21.1 53 53 SW 9 15 30.00 1016 10 16 N/A
5:53 pm 17:53 Mostly Cloudy 85 29.4 71 21.7 63 63 SSW 8 13 29.99 1016 10 16 N/A
6:53 pm 18:53 Partly Cloudy 85 29.4 72 22.2 65 65 SSW 9 15 29.98 1015 10 16 N/A
7:53 pm 19:53 Sunny 81 27.2 72 22.2 74 74 SSW 7 11 29.98 1015 10 16 N/A
8:53 pm 20:53 Clear 77 25 72 22.2 85 85 SSW 7 11 29.98 1015 10 16 N/A
9:53 pm 21:53 Clear 76 24.4 71 21.7 85 85 SSW 7 11 29.98 1015 10 16 N/A
10:53 pm 22:53 Clear 75 23.9 71 21.7 88 88 SSW 7 11 29.98 1015 10 16 N/A
11:53 pm 23:53 Clear 79 26.1 71 21.7 77 77 SW 8 13 29.98 1015 10 16 N/A

Powered by AerisWeather